Regional Weather Roundup
Issued by NWS

Home | Current Version | Previous Version | Text Only | Print | Product List | Glossary Off
Versions: 1 2 3 4 5 6 7 8 9 10 11 12 13 14 15 16 17 18 19 20 21 22 23 24 25 26 27 28 29 30 31 32 33 34 35 36 37 38 39 40 41 42 43 44 45 46 47 48 49 50

000
ASUS43 KDTX 300101
RWRMI
MICHIGAN HOURLY REGIONAL WEATHER ROUNDUP
NATIONAL WEATHER SERVICE DETROIT/PONTIAC MI
900 PM EDT SUN MAY 29 2016

NOTE: "FAIR" INDICATES FEW OR NO CLOUDS BELOW 12,000 FEET WITH NO
SIGNIFICANT WEATHER AND/OR OBSTRUCTION TO VISIBILITY.

MIZ047>049-052>055-059>063-066>070-074>076-081>083-300200-
SOUTHEAST LOWER MICHIGAN

CITY           SKY/WX    TMP DP  RH WIND       PRES   REMARKS
ADRIAN         CLEAR     79  57  46 NW12G18   29.96R
ALMA           CLEAR     71  55  58 SW8       29.95R
ANN ARBOR      CLEAR     78  57  48 NW12      29.95R
CARO           CLEAR     75  56  53 W12G21    29.92R
DETROIT CITY   PTCLDY    82  53  36 W7        29.92S
DETROIT        PTCLDY    81  53  37 W7        29.94R
FLINT          CLEAR     77  56  48 W17       29.94R
GROSSE ILE     CLOUDY    73  63  68 SE6       29.92S
HILLSDALE      CLEAR     75  51  43 NW10      29.99R
HOWELL         CLEAR     74  53  46 W12G18    29.96R

CITY           SKY/WX    TMP DP  RH WIND       PRES   REMARKS
JACKSON        CLEAR     73  54  51 W10       29.98R
LAMBERTVILLE   CLEAR     80  53  39 CALM      29.95R
LANSING        CLEAR     74  55  51 W9        29.97R
LAPEER         MOCLDY    76  57  51 W6        29.94R
MASON          CLEAR     73  55  53 W9        29.97R
MONROE         CLEAR     77  58  50 W7        29.93R
PONTIAC        PTCLDY    78  58  49 W14       29.94R
PORT HOPE        N/A     76  58  53 VRB5      29.88R
PORT HURON     CLOUDY    68  66  94 CALM      29.92R
TRI CITIES     CLEAR     75  56  51 W14       29.93R
MIDLAND        FAIR      73  56  53 W8        29.92R
TROY           MOCLDY    83  52  34 W3        29.94S
SAGINAW HB     CLEAR     73  54  49 W15       29.93R
$$
MIZ043>046-050>051-056>058-064>065-071>073-077>080-300200-
SOUTHWEST LOWER MICHIGAN

CITY           SKY/WX    TMP DP  RH WIND       PRES   REMARKS
BATTLE CREEK   CLEAR     71  56  58 W6        29.99R
BENTON HARBOR  CLEAR     72  57  59 SW8       29.98R
BIG RAPIDS     CLOUDY    70  60  70 SW7       29.94R
COLDWATER      CLEAR     74  52  47 NW9       29.99R
FREMONT        CLOUDY    70  58  66 SW6       29.94S
HOLLAND        CLEAR     71  58  63 SW9       29.97S
GRAND RAPIDS   PTCLDY    74  57  55 W10       29.96S
IONIA          FAIR      72  55  56 W12       29.95S
KALAMAZOO      CLEAR     73  55  53 W8        29.98S
LUDINGTON      CLEAR     62  56  80 CALM      29.92S
MARSHALL       CLEAR     71  56  57 W8        29.98R
MOUNT PLEASANT PTCLDY    71  57  61 W9        29.93R
MUSKEGON       MOCLDY    66  55  67 SW8       29.95S
SOUTH HAVEN    CLEAR     73  57  58 SW6       29.97S
$$
MIZ016>042-300200-
NORTHERN LOWER MICHIGAN

CITY           SKY/WX    TMP DP  RH WIND       PRES   REMARKS
ALPENA         MOCLDY    72  59  63 SW7       29.86R
BEAVER ISLAND  PTCLDY    58  54  87 SW15G22   29.86R
BELLAIRE       MOCLDY    70  57  64 SW3       29.89R
CADILLAC       CLEAR     66  59  77 SW8       29.92S
CHARLEVOIX     PTCLDY    68  57  69 SW13G21   29.89S
FRANKFORT      MOCLDY    62  56  81 SW7       29.90R
GAYLORD        PTCLDY    69  56  62 W13       29.90R
GRAYLING       MOCLDY    69  58  66 SW7       29.91R
HARBOR SPRINGS CLOUDY    65  57  75 W5        29.87R
HOUGHTON LAKE  CLOUDY    70  57  63 W10       29.91S
OSCODA         PTCLDY    76  55  46 W9        29.87R
PELLSTON       CLEAR     68  57  68 SW9       29.86R
ROGERS CITY    MOCLDY    72  55  55 W9G16     29.86R
TRAVERSE CITY  PTCLDY    72  58  61 SW10G18   29.87R
$$
MIZ007>008-015-300200-
EASTERN UPPER MICHIGAN

CITY           SKY/WX    TMP DP  RH WIND       PRES   REMARKS
KINROSS          N/A     64  59  82 SW7       29.83R
MACKINAC ISLAN PTCLDY    60  54  81 SW14G28   29.84R
NEWBERRY       MOCLDY    62  60  94 SW7       29.82R
S. S. MARIE    PTCLDY    66  59  78 SW9       29.81R
MUNISING         N/A     57  57 100 NW5       29.82R
$$
MIZ004>006-011>014-085-300200-
CENTRAL UPPER MICHIGAN

CITY           SKY/WX    TMP DP  RH WIND       PRES   REMARKS
MANISTIQUE     MOCLDY    60  59  97 SW5       29.82F
ESCANABA       MOCLDY    64  63  94 W3        29.85R
MENOMINEE      MOCLDY    70  61  73 W3        29.87R
SAWYER-GWINN   MOCLDY    63  59  88 W10       29.85R
$$
MIZ001>003-009>011-084-300200-
WESTERN UPPER MICHIGAN

CITY           SKY/WX    TMP DP  RH WIND       PRES   REMARKS
IRON MOUNTAIN  MOCLDY    65  57  75 W9        29.87R
HOUGHTON       CLOUDY    59  52  77 W18G25    29.82R
COPPER HARBOR    N/A     59  58  96 VRB7      29.78R
IRONWOOD       PTCLDY    64  55  72 NW10      29.88R
$$

ABBREVIATIONS USED IN REMARKS
   TC - TEMPERATURE IN CELSIUS
  WCI - WIND CHILL INDEX
   HX - HEAT INDEX
  VSB - VISIBILITY





USA.gov is the U.S. government's official web portal to all federal, state and local government web resources and services.